Kansas Department of Transportation
RWIS(Road and Runway Information System) Map and Weather Data





Station
Surface
Air
Wind
Site IDSensor TypeLocationTemperature (°F)Temperature (°F)Humidity (%)Speed (mi/h)Gusts (mi/h)DirectionTime
123002AtmosphericBonner Springs 9551914SJul 18 2019 4:25PM
123002ApproachBonner Springs133     Jul 18 2019 4:25PM
123002DeckBonner Springs126     Jul 18 2019 4:25PM
123014AtmosphericBull Creek 9548814SEJul 18 2019 4:25PM
123014DeckBull Creek126     Jul 18 2019 4:25PM
123014DepartureBull Creek126     Jul 18 2019 4:25PM
123015AtmosphericLeavenworth 9556817SSWJul 18 2019 4:25PM
123015DeckLeavenworth129     Jul 18 2019 4:25PM
123015DepartureLeavenworth124     Jul 18 2019 4:25PM
123020RoadwayMayettaUnavailable     Jul 18 2019 4:25PM
123020DeckMayettaUnavailable     Jul 18 2019 4:25PM
505000AtmosphericKTA 1 993506SSEJul 18 2019 4:20PM
505000ApproachKTA 1126     Jul 18 2019 4:20PM
505000DeckKTA 1129     Jul 18 2019 4:20PM
505001AtmosphericKTA 2 994200SJul 18 2019 4:20PM
505001ApproachKTA 2126     Jul 18 2019 4:20PM
505001DeckKTA 2129     Jul 18 2019 4:20PM
505002AtmosphericKTA 3 9952310SSWJul 18 2019 4:20PM
505002ApproachKTA 3131     Jul 18 2019 4:20PM
505002DeckKTA 3124     Jul 18 2019 4:20PM
505003AtmosphericKTA 4 9541417NJul 18 2019 4:20PM
505003ApproachKTA 4127     Jul 18 2019 4:20PM
505003DeckKTA 4122     Jul 18 2019 4:20PM
505004AtmosphericKTA 5 95991418WJul 18 2019 4:20PM
505004RoadwayKTA 5127     Jul 18 2019 4:20PM
505004RoadwayKTA 5127     Jul 18 2019 4:20PM
505005AtmosphericKTA 6 9548817SJul 18 2019 4:20PM
505005Approach KTA 6129     Jul 18 2019 4:20PM
505005DeckKTA 6124     Jul 18 2019 4:20PM
505006AtmosphericKTA 7 9761713SSWJul 18 2019 4:20PM
505006ApproachKTA 7Unavailable     Jul 18 2019 4:20PM
505006DeckKTA 7Unavailable     Jul 18 2019 4:20PM
505007AtmosphericKTA 8 9758713SJul 18 2019 4:20PM
505007ApproachKTA 8129     Jul 18 2019 4:20PM
505007DeckKTA 8124     Jul 18 2019 4:20PM
505008AtmosphericKTA 9 9910713SSWJul 18 2019 4:20PM
505008ApproachKTA 9131     Jul 18 2019 4:20PM
505008DeckKTA 9124     Jul 18 2019 4:20PM
505014AtmosphericI-135 97421121SSWJul 18 2019 4:20PM
505014ApproachI-135122     Jul 18 2019 4:30PM
505014DeckI-135126     Jul 18 2019 4:30PM
540000AtmosphericBlue Rapids 9750711SSWJul 18 2019 4:25PM
540000DeckBlue Rapids126     Jul 18 2019 4:25PM
540000DepartureBlue Rapids135     Jul 18 2019 4:25PM
540001AtmosphericSabetha 9556715SJul 18 2019 4:25PM
540001ApproachSabetha135     Jul 18 2019 4:25PM
540001DeckSabetha135     Jul 18 2019 4:25PM
540002AtmosphericWestgate 97441014SJul 18 2019 4:25PM
540002DeckWestgate126     Jul 18 2019 4:25PM
540002DepartureWestgate126     Jul 18 2019 4:25PM
540003AtmosphericEmporia 97501620SSWJul 18 2019 4:25PM
540003ApproachEmporia127     Jul 18 2019 4:25PM
540003DeckEmporia129     Jul 18 2019 4:25PM
540006AtmosphericTroy 9573711SJul 18 2019 4:25PM
540006DeckTroy129     Jul 18 2019 4:25PM
540006DepartureTroy135     Jul 18 2019 4:25PM
540007AtmosphericManhattan 975037SWJul 18 2019 4:25PM
540007DepartureManhattan127     Jul 18 2019 4:25PM
540007DeckManhattan135     Jul 18 2019 4:25PM
541000AtmosphericElkhart 100251216SEJul 18 2019 4:25PM
541000ApproachElkhart145     Jul 18 2019 4:25PM
541000DeckElkhart138     Jul 18 2019 4:25PM
541000DeckElkhart138     Jul 18 2019 4:25PM
541001AtmosphericSyracuse 1002469ESEJul 18 2019 4:25PM
541001Out of Service for WinterSyracuse136     Jul 18 2019 4:25PM
541001DeckSyracuse131     Jul 18 2019 4:25PM
541002AtmosphericLiberal 100261119SJul 18 2019 4:25PM
541002ApproachLiberalUnavailable     Jul 18 2019 4:25PM
541002DeckLiberalUnavailable     Jul 18 2019 4:25PM
541003AtmosphericFord 102291015SJul 18 2019 4:25PM
541003DeckFord131     Jul 18 2019 4:25PM
541003DepartureFord131     Jul 18 2019 4:25PM
541004AtmosphericScott 7316911SJul 18 2019 4:25PM
541004DepartureScott142     Jul 18 2019 4:25PM
541005AtmosphericNess 102321016SWJul 18 2019 4:25PM
541005DeckNess133     Jul 18 2019 4:25PM
541005DepartureNess140     Jul 18 2019 4:25PM
543000AtmosphericJunction City      Jul 18 2019 12:30PM
543000ApproachJunction City      Jul 18 2019 12:30PM
543000DeckJunction City      Jul 18 2019 12:30PM
543002AtmosphericMcPherson 99401621SSWJul 18 2019 4:25PM
543002ApproachMcPherson124     Jul 18 2019 4:25PM
543002DeckMcPherson126     Jul 18 2019 4:25PM
543003AtmosphericSalina 100251618SJul 18 2019 4:25PM
543003DepartureSalina127     Jul 18 2019 4:25PM
543003RoadwaySalina133     Jul 18 2019 4:25PM
543004AtmosphericConcordia 99401219SJul 18 2019 4:25PM
543004ApproachConcordia133     Jul 18 2019 4:25PM
543004DeckConcordia126     Jul 18 2019 4:25PM
543005AtmosphericPeabody 994200SWJul 18 2019 4:25PM
543005ApproachPeabody135     Jul 18 2019 4:25PM
543005DeckPeabodyUnavailable     Jul 18 2019 4:25PM
560000AtmosphericEdson 1002147NEJul 18 2019 4:25PM
560000RoadwayEdson136     Jul 18 2019 4:25PM
560000RoadwayEdson131     Jul 18 2019 4:25PM
560001AtmosphericOakley 973267EJul 18 2019 4:25PM
560001ApproachOakley138     Jul 18 2019 4:25PM
560001DeckOakley133     Jul 18 2019 4:25PM
560002AtmosphericAtwood 991927ENEJul 18 2019 4:25PM
560002ApproachAtwood129     Jul 18 2019 4:25PM
560002DeckAtwoodUnavailable     Jul 18 2019 4:25PM
560003AtmosphericJennings 1022613EJul 18 2019 4:25PM
560003ApproachJennings153     Jul 18 2019 4:25PM
560003DeckJennings147     Jul 18 2019 4:25PM
560003DeckJennings147     Jul 18 2019 4:25PM
560005AtmosphericWalker 100341117SWJul 18 2019 4:25PM
560005ApproachWalker131     Jul 18 2019 4:25PM
560005DeckWalker124     Jul 18 2019 4:25PM
560006AtmosphericBow Creek(Stockton) 1002469SWJul 18 2019 4:25PM
560006ApproachBow Creek(Stockton)140     Jul 18 2019 4:25PM
560006DeckBow Creek(Stockton)136     Jul 18 2019 4:25PM
560007AtmosphericLebanon 8235616SWJul 18 2019 4:25PM
560007ApproachLebanon149     Jul 18 2019 4:25PM
560007DeckLebanon135     Jul 18 2019 4:25PM
560008AtmosphericWallace 1002025NJul 18 2019 4:25PM
560008ApproachWallace149     Jul 18 2019 4:25PM
560008DeckWallace138     Jul 18 2019 4:25PM
572000AtmosphericGreat Bend 100381216SWJul 18 2019 4:25PM
572000ApproachGreat Bend135     Jul 18 2019 4:25PM
572000DeckGreat Bend129     Jul 18 2019 4:25PM
572001AtmosphericPratt 1001216SWJul 18 2019 4:25PM
572001ApproachPratt142     Jul 18 2019 4:25PM
572001DeckPratt136     Jul 18 2019 4:25PM
573000AtmosphericEureka 9350719SJul 18 2019 4:25PM
573000DeckEurekaUnavailable     Jul 18 2019 4:25PM
573000DepartureEureka127     Jul 18 2019 4:25PM
573002AtmosphericCaney 9534411SEJul 18 2019 4:25PM
573002RoadwayCaney135     Jul 18 2019 4:25PM
573003AtmosphericChetopa 9358310SSEJul 18 2019 4:25PM
573003DeckChetopa135     Jul 18 2019 4:25PM
573003DeckChetopa135     Jul 18 2019 4:25PM
573003DepartureChetopa140     Jul 18 2019 4:25PM
573004AtmosphericChanute 9358713SJul 18 2019 4:25PM
573004ApproachChanute131     Jul 18 2019 4:25PM
573004DeckChanute127     Jul 18 2019 4:25PM